Location: Elliott Island road
(38.3470°N, 75.9376°W)
Time: 21:38:41
(UTC-04:00)

OTV 5 (USA 277) - Visible Passes

Search period start: 25 April 2018 00:00
Search period end: 05 May 2018 00:00
Orbit: 308 x 325 km, 54.5° (Epoch: 25 April)

Date Brightness Start Highest point End Pass type
(mag) Time Alt. Az. Time Alt. Az. Time Alt. Az.
01 May ? 21:49:38 10° N 21:50:52 14° NNE 21:50:52 14° NNE visible
02 May ? 22:03:16 10° NNW 22:04:37 22° N 22:04:37 22° N visible
03 May ? 20:44:57 10° NNE 20:45:26 10° NNE 20:45:55 10° NE visible
03 May ? 22:17:24 10° NW 22:18:25 20° NW 22:18:25 20° NW visible
04 May ? 20:57:52 10° NNW 21:00:01 20° NE 21:01:23 15° ENE visible
04 May ? 22:32:05 10° WNW 22:32:14 11° WNW 22:32:14 11° WNW visible
